Location: Newark
(47.5833°N, 8.1500°E)
Time: 14:34:19
(UTC+00:00)

Tiros 1 - Pass Details

Date: 31 October 2020
Orbit: 630 x 664 km, 48.4° (Epoch: 29 November)

Event Time Altitude Azimuth Distance (km) Brightness Sun altitude
Exits shadow 02:11:32 10° 80° (E) 1,993 10.3 -40.0°
Drops below altitude 10° 02:11:40 10° 80° (E) 2,042 10.3 -40.0°
Sets 02:13:59 0° 74° (ENE) 2,919 11.4 -39.6°
